Flag Weather past 2 weeks in Ipswich, England, United Kingdom

Now
43 °F

Light rain. Passing clouds.


Feels Like: 39 °F
Forecast: N/A
Wind: 7 mph from Northwest

Location: Wattisham

Current Time: Nov 23, 2014 at 8:27:57 PM

Latest Report: Nov 23, 2014 at 7:50 PM


Visibility: N/A

Pressure: 30.07 "Hg

Humidity: 100%

Dew point: 43 °F

Location of IpswichLocation

Historic Weather in Ipswich — Graph

°F

Ipswich temperature yesterday

Maximum temperature yesterday: 54 °F (at 9:50 AM)
Minimum temperature yesterday: 48 °F (at 12:50 AM)
Average temperature yesterday: 52 °F

Past Weeks' High & Low Weather Summary

 TemperatureHumidityPressure
High55 °F (Nov 12, 10:50 AM)100% (Nov 8, 8:50 PM)30.30 "Hg (Nov 8, 8:50 PM)
Low41 °F (Nov 20, 7:50 AM)72% (Nov 10, 12:50 PM)29.36 "Hg (Nov 12, 12:50 AM)
Average49 °F93%29.74 "Hg
* Reported Nov 8 6:50 PM — Nov 23 6:50 PM, Ipswich, Weather by CustomWeather, © 2014

Note: Actual official high and low records may vary slightly from our data, if they occured in-between our weather recording intervals... More about our weather records

Advertising

Ipswich weather history for previous 24 hours

 ConditionsComfort  
Time TempWeatherWind HumidityBarometerVisibility
6:50 PM
Nov 23
43 °FRain. Passing clouds.7 mph93%30.07 "HgN/A
5:50 PM43 °FRain. Overcast.10 mph93%30.04 "HgN/A
4:50 PM43 °FRain. Mostly cloudy.12 mph93%30.04 "HgN/A
3:50 PM43 °FRain. Broken clouds.14 mph100%30.01 "Hg4 mi
3:34 PM43 °FRain. Partly sunny.15 mph100%30.01 "Hg4 mi
2:50 PM45 °FRain. Broken clouds.16 mph93%29.98 "Hg4 mi
1:53 PM45 °FRain. Partly sunny.15 mph93%29.98 "Hg4 mi
12:50 PM46 °FRain. Broken clouds.15 mph93%29.98 "Hg6 mi
11:50 AM46 °FRain. Broken clouds.14 mph100%29.98 "Hg4 mi
10:50 AM46 °FRain. Broken clouds.14 mph100%29.98 "HgN/A
9:50 AM46 °FRain. Broken clouds.15 mph100%29.98 "HgN/A
8:50 AM48 °FSprinkles. Low clouds.12 mph100%29.95 "Hg3 mi
7:50 AM50 °FRain. Partly sunny.10 mph100%29.95 "Hg3 mi
6:50 AM50 °FRain. Low clouds.12 mph100%29.95 "Hg6 mi
5:50 AM54 °FRain. Low clouds.3 mph100%29.95 "Hg2 mi
4:50 AM54 °FRain. Low clouds.5 mph100%29.95 "Hg1 mi
3:50 AM54 °FFog.5 mph100%29.95 "Hg0 mi
2:50 AM54 °FFog.5 mph100%29.95 "Hg0 mi
1:50 AM54 °FFog.5 mph100%29.98 "Hg0 mi
12:50 AM54 °FFog.6 mph100%29.98 "Hg1 mi
11:50 PM
Nov 22
54 °FFog.5 mph100%29.98 "Hg1 mi
10:50 PM54 °FSprinkles. Passing clouds.3 mph100%29.98 "Hg1 mi
9:50 PM54 °FFog.6 mph100%29.98 "Hg1 mi
8:50 PM54 °FFog.6 mph100%29.95 "Hg1 mi
Weather by CustomWeather, © 2014

See weather overviewHow to use our weather pages